owner,sensor,date,latitude,longitude,vertical_datum,sea_water_temperature,qcFlag 
WAVCIS,ioos:station:WAVCIS:CSI16:1,2009-04-01T00:00:00Z,29.4012,-89.0355,10.0,19.361,11111222 
WAVCIS,ioos:station:WAVCIS:CSI16:1,2009-04-01T00:15:00Z,29.4012,-89.0355,10.0,19.288,11111222 
WAVCIS,ioos:station:WAVCIS:CSI16:1,2009-04-01T00:30:00Z,29.4012,-89.0355,10.0,19.44,11111222 
WAVCIS,ioos:station:WAVCIS:CSI16:1,2009-04-01T00:45:00Z,29.4012,-89.0355,10.0,19.489,11111222 
WAVCIS,ioos:station:WAVCIS:CSI16:1,2009-04-01T01:00:00Z,29.4012,-89.0355,10.0,19.885,11111222 
WAVCIS,ioos:station:WAVCIS:CSI16:1,2009-04-01T01:15:00Z,29.4012,-89.0355,10.0,19.418,11111222 
WAVCIS,ioos:station:WAVCIS:CSI16:1,2009-04-01T01:30:00Z,29.4012,-89.0355,10.0,19.252,11111222 
WAVCIS,ioos:station:WAVCIS:CSI16:1,2009-04-01T01:45:00Z,29.4012,-89.0355,10.0,19.418,11111222 
WAVCIS,ioos:station:WAVCIS:CSI16:1,2009-04-01T02:00:00Z,29.4012,-89.0355,10.0,19.412,11111222 
WAVCIS,ioos:station:WAVCIS:CSI16:1,2009-04-01T02:15:00Z,29.4012,-89.0355,10.0,19.375,11111222 
WAVCIS,ioos:station:WAVCIS:CSI16:1,2009-04-01T02:30:00Z,29.4012,-89.0355,10.0,19.189,11111222 
WAVCIS,ioos:station:WAVCIS:CSI16:1,2009-04-01T02:45:00Z,29.4012,-89.0355,10.0,19.077,11111222 
WAVCIS,ioos:station:WAVCIS:CSI16:1,2009-04-01T03:00:00Z,29.4012,-89.0355,10.0,19.159,11111222 
WAVCIS,ioos:station:WAVCIS:CSI16:1,2009-04-01T03:15:00Z,29.4012,-89.0355,10.0,19.315,11111222 
WAVCIS,ioos:station:WAVCIS:CSI16:1,2009-04-01T03:30:00Z,29.4012,-89.0355,10.0,19.184,11111222 
WAVCIS,ioos:station:WAVCIS:CSI16:1,2009-04-01T03:45:00Z,29.4012,-89.0355,10.0,19.058,11111222 
WAVCIS,ioos:station:WAVCIS:CSI16:1,2009-04-01T04:00:00Z,29.4012,-89.0355,10.0,19.208,11111222 
WAVCIS,ioos:station:WAVCIS:CSI16:1,2009-04-01T04:15:00Z,29.4012,-89.0355,10.0,19.404,11111222 
WAVCIS,ioos:station:WAVCIS:CSI16:1,2009-04-01T04:30:00Z,29.4012,-89.0355,10.0,19.516,11111222 
WAVCIS,ioos:station:WAVCIS:CSI16:1,2009-04-01T04:45:00Z,29.4012,-89.0355,10.0,19.508,11111222 
WAVCIS,ioos:station:WAVCIS:CSI16:1,2009-04-01T05:00:00Z,29.4012,-89.0355,10.0,19.507,11111222 
WAVCIS,ioos:station:WAVCIS:CSI16:1,2009-04-01T05:15:00Z,29.4012,-89.0355,10.0,19.518,11111222 
WAVCIS,ioos:station:WAVCIS:CSI16:1,2009-04-01T05:30:00Z,29.4012,-89.0355,10.0,19.545,11111222 
WAVCIS,ioos:station:WAVCIS:CSI16:1,2009-04-01T05:45:00Z,29.4012,-89.0355,10.0,19.617,11111222 
WAVCIS,ioos:station:WAVCIS:CSI16:1,2009-04-01T06:00:00Z,29.4012,-89.0355,10.0,19.613,11111222 
WAVCIS,ioos:station:WAVCIS:CSI16:1,2009-04-01T06:15:00Z,29.4012,-89.0355,10.0,19.708,11111222 
WAVCIS,ioos:station:WAVCIS:CSI16:1,2009-04-01T06:30:00Z,29.4012,-89.0355,10.0,19.733,11111222 
WAVCIS,ioos:station:WAVCIS:CSI16:1,2009-04-01T06:45:00Z,29.4012,-89.0355,10.0,19.673,11111222 
WAVCIS,ioos:station:WAVCIS:CSI16:1,2009-04-01T07:00:00Z,29.4012,-89.0355,10.0,19.74,11111222 
WAVCIS,ioos:station:WAVCIS:CSI16:1,2009-04-01T07:15:00Z,29.4012,-89.0355,10.0,19.795,11111222 
WAVCIS,ioos:station:WAVCIS:CSI16:1,2009-04-01T07:30:00Z,29.4012,-89.0355,10.0,19.682,11111222 
WAVCIS,ioos:station:WAVCIS:CSI16:1,2009-04-01T07:45:00Z,29.4012,-89.0355,10.0,19.808,11111222 
WAVCIS,ioos:station:WAVCIS:CSI16:1,2009-04-01T08:00:00Z,29.4012,-89.0355,10.0,19.776,11111222 
WAVCIS,ioos:station:WAVCIS:CSI16:1,2009-04-01T08:15:00Z,29.4012,-89.0355,10.0,19.803,11111222 
WAVCIS,ioos:station:WAVCIS:CSI16:1,2009-04-01T08:30:00Z,29.4012,-89.0355,10.0,19.9,11111222 
WAVCIS,ioos:station:WAVCIS:CSI16:1,2009-04-01T08:45:00Z,29.4012,-89.0355,10.0,19.736,11111222 
WAVCIS,ioos:station:WAVCIS:CSI16:1,2009-04-01T09:00:00Z,29.4012,-89.0355,10.0,19.736,11111222 
WAVCIS,ioos:station:WAVCIS:CSI16:1,2009-04-01T09:15:00Z,29.4012,-89.0355,10.0,19.773,11111222 
WAVCIS,ioos:station:WAVCIS:CSI16:1,2009-04-01T09:30:00Z,29.4012,-89.0355,10.0,19.861,11111222 
WAVCIS,ioos:station:WAVCIS:CSI16:1,2009-04-01T09:45:00Z,29.4012,-89.0355,10.0,19.935,11111222 
WAVCIS,ioos:station:WAVCIS:CSI16:1,2009-04-01T10:00:00Z,29.4012,-89.0355,10.0,20.058,11111222 
WAVCIS,ioos:station:WAVCIS:CSI16:1,2009-04-01T10:15:00Z,29.4012,-89.0355,10.0,20.016,11111222 
WAVCIS,ioos:station:WAVCIS:CSI16:1,2009-04-01T10:30:00Z,29.4012,-89.0355,10.0,19.912,11111222 
WAVCIS,ioos:station:WAVCIS:CSI16:1,2009-04-01T10:45:00Z,29.4012,-89.0355,10.0,19.869,11111222 
WAVCIS,ioos:station:WAVCIS:CSI16:1,2009-04-01T11:00:00Z,29.4012,-89.0355,10.0,19.893,11111222 
WAVCIS,ioos:station:WAVCIS:CSI16:1,2009-04-01T11:15:00Z,29.4012,-89.0355,10.0,19.867,11111222 
WAVCIS,ioos:station:WAVCIS:CSI16:1,2009-04-01T11:30:00Z,29.4012,-89.0355,10.0,19.931,11111222 
WAVCIS,ioos:station:WAVCIS:CSI16:1,2009-04-01T11:45:00Z,29.4012,-89.0355,10.0,20.021,11111222 
WAVCIS,ioos:station:WAVCIS:CSI16:1,2009-04-01T12:00:00Z,29.4012,-89.0355,10.0,20.114,11111222 
WAVCIS,ioos:station:WAVCIS:CSI16:1,2009-04-01T12:15:00Z,29.4012,-89.0355,10.0,20.207,11111222 
WAVCIS,ioos:station:WAVCIS:CSI16:1,2009-04-01T12:30:00Z,29.4012,-89.0355,10.0,20.221,11111222 
WAVCIS,ioos:station:WAVCIS:CSI16:1,2009-04-01T12:45:00Z,29.4012,-89.0355,10.0,20.257,11111222 
WAVCIS,ioos:station:WAVCIS:CSI16:1,2009-04-01T13:00:00Z,29.4012,-89.0355,10.0,20.385,11111222 
WAVCIS,ioos:station:WAVCIS:CSI16:1,2009-04-01T13:15:00Z,29.4012,-89.0355,10.0,20.323,11111222 
WAVCIS,ioos:station:WAVCIS:CSI16:1,2009-04-01T13:30:00Z,29.4012,-89.0355,10.0,20.393,11111222 
WAVCIS,ioos:station:WAVCIS:CSI16:1,2009-04-01T13:45:00Z,29.4012,-89.0355,10.0,20.365,11111222 
WAVCIS,ioos:station:WAVCIS:CSI16:1,2009-04-01T14:00:00Z,29.4012,-89.0355,10.0,20.356,11111222 
WAVCIS,ioos:station:WAVCIS:CSI16:1,2009-04-01T14:15:00Z,29.4012,-89.0355,10.0,20.414,11111222 
WAVCIS,ioos:station:WAVCIS:CSI16:1,2009-04-01T14:30:00Z,29.4012,-89.0355,10.0,20.453,11111222 
WAVCIS,ioos:station:WAVCIS:CSI16:1,2009-04-01T14:45:00Z,29.4012,-89.0355,10.0,20.475,11111222 
WAVCIS,ioos:station:WAVCIS:CSI16:1,2009-04-01T15:00:00Z,29.4012,-89.0355,10.0,20.492,11111222 
WAVCIS,ioos:station:WAVCIS:CSI16:1,2009-04-01T15:15:00Z,29.4012,-89.0355,10.0,20.51,11111222 
WAVCIS,ioos:station:WAVCIS:CSI16:1,2009-04-01T15:30:00Z,29.4012,-89.0355,10.0,20.523,11111222 
WAVCIS,ioos:station:WAVCIS:CSI16:1,2009-04-01T15:45:00Z,29.4012,-89.0355,10.0,20.532,11111222 
WAVCIS,ioos:station:WAVCIS:CSI16:1,2009-04-01T16:00:00Z,29.4012,-89.0355,10.0,20.559,11111222 
WAVCIS,ioos:station:WAVCIS:CSI16:1,2009-04-01T16:15:00Z,29.4012,-89.0355,10.0,20.583,11111222 
WAVCIS,ioos:station:WAVCIS:CSI16:1,2009-04-01T16:30:00Z,29.4012,-89.0355,10.0,20.578,11111222 
WAVCIS,ioos:station:WAVCIS:CSI16:1,2009-04-01T16:45:00Z,29.4012,-89.0355,10.0,20.613,11111222 
WAVCIS,ioos:station:WAVCIS:CSI16:1,2009-04-01T17:00:00Z,29.4012,-89.0355,10.0,20.588,11111222 
WAVCIS,ioos:station:WAVCIS:CSI16:1,2009-04-01T17:15:00Z,29.4012,-89.0355,10.0,20.586,11111222 
WAVCIS,ioos:station:WAVCIS:CSI16:1,2009-04-01T17:30:00Z,29.4012,-89.0355,10.0,20.605,11111222 
WAVCIS,ioos:station:WAVCIS:CSI16:1,2009-04-01T17:45:00Z,29.4012,-89.0355,10.0,20.6,11111222 
WAVCIS,ioos:station:WAVCIS:CSI16:1,2009-04-01T18:00:00Z,29.4012,-89.0355,10.0,20.604,11111222 
WAVCIS,ioos:station:WAVCIS:CSI16:1,2009-04-01T18:15:00Z,29.4012,-89.0355,10.0,20.594,11111222 
WAVCIS,ioos:station:WAVCIS:CSI16:1,2009-04-01T18:30:00Z,29.4012,-89.0355,10.0,20.637,11111222 
WAVCIS,ioos:station:WAVCIS:CSI16:1,2009-04-01T18:45:00Z,29.4012,-89.0355,10.0,20.609,11111222 
WAVCIS,ioos:station:WAVCIS:CSI16:1,2009-04-01T19:00:00Z,29.4012,-89.0355,10.0,20.605,11111222 
WAVCIS,ioos:station:WAVCIS:CSI16:1,2009-04-01T19:15:00Z,29.4012,-89.0355,10.0,20.629,11111222 
WAVCIS,ioos:station:WAVCIS:CSI16:1,2009-04-01T19:30:00Z,29.4012,-89.0355,10.0,20.569,11111222 
WAVCIS,ioos:station:WAVCIS:CSI16:1,2009-04-01T19:45:00Z,29.4012,-89.0355,10.0,20.585,11111222 
WAVCIS,ioos:station:WAVCIS:CSI16:1,2009-04-01T20:00:00Z,29.4012,-89.0355,10.0,20.624,11111222 
WAVCIS,ioos:station:WAVCIS:CSI16:1,2009-04-01T20:15:00Z,29.4012,-89.0355,10.0,20.612,11111222 
WAVCIS,ioos:station:WAVCIS:CSI16:1,2009-04-01T20:30:00Z,29.4012,-89.0355,10.0,20.596,11111222 
WAVCIS,ioos:station:WAVCIS:CSI16:1,2009-04-01T20:45:00Z,29.4012,-89.0355,10.0,20.579,11111222 
WAVCIS,ioos:station:WAVCIS:CSI16:1,2009-04-01T21:00:00Z,29.4012,-89.0355,10.0,20.587,11111222 
WAVCIS,ioos:station:WAVCIS:CSI16:1,2009-04-01T21:15:00Z,29.4012,-89.0355,10.0,20.58,11111222 
WAVCIS,ioos:station:WAVCIS:CSI16:1,2009-04-01T21:30:00Z,29.4012,-89.0355,10.0,20.583,11111222 
WAVCIS,ioos:station:WAVCIS:CSI16:1,2009-04-01T21:45:00Z,29.4012,-89.0355,10.0,20.579,11111222 
WAVCIS,ioos:station:WAVCIS:CSI16:1,2009-04-01T22:00:00Z,29.4012,-89.0355,10.0,20.557,11111222 
WAVCIS,ioos:station:WAVCIS:CSI16:1,2009-04-01T22:15:00Z,29.4012,-89.0355,10.0,20.521,11111222 
WAVCIS,ioos:station:WAVCIS:CSI16:1,2009-04-01T22:30:00Z,29.4012,-89.0355,10.0,20.499,11111222 
WAVCIS,ioos:station:WAVCIS:CSI16:1,2009-04-01T22:45:00Z,29.4012,-89.0355,10.0,20.475,11111222 
WAVCIS,ioos:station:WAVCIS:CSI16:1,2009-04-01T23:00:00Z,29.4012,-89.0355,10.0,20.469,11111222 
WAVCIS,ioos:station:WAVCIS:CSI16:1,2009-04-01T23:15:00Z,29.4012,-89.0355,10.0,20.445,11111222 
WAVCIS,ioos:station:WAVCIS:CSI16:1,2009-04-01T23:30:00Z,29.4012,-89.0355,10.0,20.44,11111222 
WAVCIS,ioos:station:WAVCIS:CSI16:1,2009-04-01T23:45:00Z,29.4012,-89.0355,10.0,20.443,11111222 
WAVCIS,ioos:station:WAVCIS:CSI16:1,2009-04-02T00:00:00Z,29.4012,-89.0355,10.0,20.423,11111222 
WAVCIS,ioos:station:WAVCIS:CSI16:1,2009-04-02T00:15:00Z,29.4012,-89.0355,10.0,20.408,11111222 
WAVCIS,ioos:station:WAVCIS:CSI16:1,2009-04-02T00:30:00Z,29.4012,-89.0355,10.0,20.372,11111222 
WAVCIS,ioos:station:WAVCIS:CSI16:1,2009-04-02T00:45:00Z,29.4012,-89.0355,10.0,20.352,11111222 
WAVCIS,ioos:station:WAVCIS:CSI16:1,2009-04-02T01:00:00Z,29.4012,-89.0355,10.0,20.348,11111222 
WAVCIS,ioos:station:WAVCIS:CSI16:1,2009-04-02T01:15:00Z,29.4012,-89.0355,10.0,20.247,11111222 
WAVCIS,ioos:station:WAVCIS:CSI16:1,2009-04-02T01:30:00Z,29.4012,-89.0355,10.0,20.241,11111222 
WAVCIS,ioos:station:WAVCIS:CSI16:1,2009-04-02T01:45:00Z,29.4012,-89.0355,10.0,20.243,11111222 
WAVCIS,ioos:station:WAVCIS:CSI16:1,2009-04-02T02:00:00Z,29.4012,-89.0355,10.0,20.229,11111222 
WAVCIS,ioos:station:WAVCIS:CSI16:1,2009-04-02T02:15:00Z,29.4012,-89.0355,10.0,20.192,11111222 
WAVCIS,ioos:station:WAVCIS:CSI16:1,2009-04-02T02:30:00Z,29.4012,-89.0355,10.0,20.158,11111222 
WAVCIS,ioos:station:WAVCIS:CSI16:1,2009-04-02T02:45:00Z,29.4012,-89.0355,10.0,20.137,11111222 
WAVCIS,ioos:station:WAVCIS:CSI16:1,2009-04-02T03:00:00Z,29.4012,-89.0355,10.0,20.112,11111222 
WAVCIS,ioos:station:WAVCIS:CSI16:1,2009-04-02T03:15:00Z,29.4012,-89.0355,10.0,20.102,11111222 
WAVCIS,ioos:station:WAVCIS:CSI16:1,2009-04-02T03:30:00Z,29.4012,-89.0355,10.0,20.017,11111222 
WAVCIS,ioos:station:WAVCIS:CSI16:1,2009-04-02T03:45:00Z,29.4012,-89.0355,10.0,20.014,11111222 
WAVCIS,ioos:station:WAVCIS:CSI16:1,2009-04-02T04:00:00Z,29.4012,-89.0355,10.0,19.993,11111222 
WAVCIS,ioos:station:WAVCIS:CSI16:1,2009-04-02T04:15:00Z,29.4012,-89.0355,10.0,19.963,11111222 
WAVCIS,ioos:station:WAVCIS:CSI16:1,2009-04-02T04:30:00Z,29.4012,-89.0355,10.0,19.898,11111222 
WAVCIS,ioos:station:WAVCIS:CSI16:1,2009-04-02T04:45:00Z,29.4012,-89.0355,10.0,19.872,11111222 
WAVCIS,ioos:station:WAVCIS:CSI16:1,2009-04-02T05:00:00Z,29.4012,-89.0355,10.0,19.912,11111222 
WAVCIS,ioos:station:WAVCIS:CSI16:1,2009-04-02T05:15:00Z,29.4012,-89.0355,10.0,19.906,11111222 
WAVCIS,ioos:station:WAVCIS:CSI16:1,2009-04-02T05:30:00Z,29.4012,-89.0355,10.0,19.934,11111222 
WAVCIS,ioos:station:WAVCIS:CSI16:1,2009-04-02T05:45:00Z,29.4012,-89.0355,10.0,19.902,11111222 
WAVCIS,ioos:station:WAVCIS:CSI16:1,2009-04-02T06:00:00Z,29.4012,-89.0355,10.0,19.906,11111222 
WAVCIS,ioos:station:WAVCIS:CSI16:1,2009-04-02T06:15:00Z,29.4012,-89.0355,10.0,19.907,11111222 
WAVCIS,ioos:station:WAVCIS:CSI16:1,2009-04-02T06:30:00Z,29.4012,-89.0355,10.0,19.91,11111222 
WAVCIS,ioos:station:WAVCIS:CSI16:1,2009-04-02T06:45:00Z,29.4012,-89.0355,10.0,19.901,11111222 
WAVCIS,ioos:station:WAVCIS:CSI16:1,2009-04-02T07:00:00Z,29.4012,-89.0355,10.0,19.918,11111222 
WAVCIS,ioos:station:WAVCIS:CSI16:1,2009-04-02T07:15:00Z,29.4012,-89.0355,10.0,19.923,11111222 
WAVCIS,ioos:station:WAVCIS:CSI16:1,2009-04-02T07:30:00Z,29.4012,-89.0355,10.0,19.924,11111222 
WAVCIS,ioos:station:WAVCIS:CSI16:1,2009-04-02T07:45:00Z,29.4012,-89.0355,10.0,19.466,11111222 
WAVCIS,ioos:station:WAVCIS:CSI16:1,2009-04-02T08:00:00Z,29.4012,-89.0355,10.0,19.439,11111222 
WAVCIS,ioos:station:WAVCIS:CSI16:1,2009-04-02T08:15:00Z,29.4012,-89.0355,10.0,19.357,11111222 
WAVCIS,ioos:station:WAVCIS:CSI16:1,2009-04-02T08:30:00Z,29.4012,-89.0355,10.0,19.558,11111222 
WAVCIS,ioos:station:WAVCIS:CSI16:1,2009-04-02T08:45:00Z,29.4012,-89.0355,10.0,19.428,11111222 
WAVCIS,ioos:station:WAVCIS:CSI16:1,2009-04-02T09:00:00Z,29.4012,-89.0355,10.0,19.377,11111222 
WAVCIS,ioos:station:WAVCIS:CSI16:1,2009-04-02T09:15:00Z,29.4012,-89.0355,10.0,19.501,11111222 
WAVCIS,ioos:station:WAVCIS:CSI16:1,2009-04-02T09:30:00Z,29.4012,-89.0355,10.0,19.372,11111222 
WAVCIS,ioos:station:WAVCIS:CSI16:1,2009-04-02T09:45:00Z,29.4012,-89.0355,10.0,19.461,11111222 
WAVCIS,ioos:station:WAVCIS:CSI16:1,2009-04-02T10:00:00Z,29.4012,-89.0355,10.0,19.59,11111222 
WAVCIS,ioos:station:WAVCIS:CSI16:1,2009-04-02T10:15:00Z,29.4012,-89.0355,10.0,19.597,11111222 
WAVCIS,ioos:station:WAVCIS:CSI16:1,2009-04-02T10:30:00Z,29.4012,-89.0355,10.0,19.686,11111222 
WAVCIS,ioos:station:WAVCIS:CSI16:1,2009-04-02T10:45:00Z,29.4012,-89.0355,10.0,19.67,11111222 
WAVCIS,ioos:station:WAVCIS:CSI16:1,2009-04-02T11:00:00Z,29.4012,-89.0355,10.0,19.777,11111222 
WAVCIS,ioos:station:WAVCIS:CSI16:1,2009-04-02T11:15:00Z,29.4012,-89.0355,10.0,19.868,11111222 
WAVCIS,ioos:station:WAVCIS:CSI16:1,2009-04-02T11:30:00Z,29.4012,-89.0355,10.0,19.971,11111222 
WAVCIS,ioos:station:WAVCIS:CSI16:1,2009-04-02T11:45:00Z,29.4012,-89.0355,10.0,20.055,11111222 
WAVCIS,ioos:station:WAVCIS:CSI16:1,2009-04-02T12:00:00Z,29.4012,-89.0355,10.0,19.984,11111222 
WAVCIS,ioos:station:WAVCIS:CSI16:1,2009-04-02T12:15:00Z,29.4012,-89.0355,10.0,20.111,11111222 
WAVCIS,ioos:station:WAVCIS:CSI16:1,2009-04-02T12:30:00Z,29.4012,-89.0355,10.0,20.106,11111222 
WAVCIS,ioos:station:WAVCIS:CSI16:1,2009-04-02T12:45:00Z,29.4012,-89.0355,10.0,20.093,11111222 
WAVCIS,ioos:station:WAVCIS:CSI16:1,2009-04-02T13:00:00Z,29.4012,-89.0355,10.0,20.014,11111222 
WAVCIS,ioos:station:WAVCIS:CSI16:1,2009-04-02T13:15:00Z,29.4012,-89.0355,10.0,19.993,11111222 
WAVCIS,ioos:station:WAVCIS:CSI16:1,2009-04-02T13:30:00Z,29.4012,-89.0355,10.0,20.011,11111222 
WAVCIS,ioos:station:WAVCIS:CSI16:1,2009-04-02T13:45:00Z,29.4012,-89.0355,10.0,20.017,11111222 
WAVCIS,ioos:station:WAVCIS:CSI16:1,2009-04-02T14:00:00Z,29.4012,-89.0355,10.0,20.032,11111222 
WAVCIS,ioos:station:WAVCIS:CSI16:1,2009-04-02T14:15:00Z,29.4012,-89.0355,10.0,20.072,11111222 
WAVCIS,ioos:station:WAVCIS:CSI16:1,2009-04-02T14:30:00Z,29.4012,-89.0355,10.0,20.091,11111222 
WAVCIS,ioos:station:WAVCIS:CSI16:1,2009-04-02T14:45:00Z,29.4012,-89.0355,10.0,20.146,11111222 
WAVCIS,ioos:station:WAVCIS:CSI16:1,2009-04-02T15:00:00Z,29.4012,-89.0355,10.0,20.176,11111222 
WAVCIS,ioos:station:WAVCIS:CSI16:1,2009-04-02T15:15:00Z,29.4012,-89.0355,10.0,20.189,11111222 
WAVCIS,ioos:station:WAVCIS:CSI16:1,2009-04-02T15:30:00Z,29.4012,-89.0355,10.0,20.187,11111222 
WAVCIS,ioos:station:WAVCIS:CSI16:1,2009-04-02T15:45:00Z,29.4012,-89.0355,10.0,20.194,11111222 
WAVCIS,ioos:station:WAVCIS:CSI16:1,2009-04-02T16:00:00Z,29.4012,-89.0355,10.0,20.188,11111222 
WAVCIS,ioos:station:WAVCIS:CSI16:1,2009-04-02T16:15:00Z,29.4012,-89.0355,10.0,20.24,11111222 
WAVCIS,ioos:station:WAVCIS:CSI16:1,2009-04-02T16:30:00Z,29.4012,-89.0355,10.0,20.253,11111222 
WAVCIS,ioos:station:WAVCIS:CSI16:1,2009-04-02T16:45:00Z,29.4012,-89.0355,10.0,20.281,11111222 
WAVCIS,ioos:station:WAVCIS:CSI16:1,2009-04-02T17:00:00Z,29.4012,-89.0355,10.0,20.279,11111222 
WAVCIS,ioos:station:WAVCIS:CSI16:1,2009-04-02T17:15:00Z,29.4012,-89.0355,10.0,20.297,11111222 
WAVCIS,ioos:station:WAVCIS:CSI16:1,2009-04-02T17:30:00Z,29.4012,-89.0355,10.0,20.281,11111222 
WAVCIS,ioos:station:WAVCIS:CSI16:1,2009-04-02T17:45:00Z,29.4012,-89.0355,10.0,20.417,11111222 
WAVCIS,ioos:station:WAVCIS:CSI16:1,2009-04-02T18:00:00Z,29.4012,-89.0355,10.0,20.323,11111222 
WAVCIS,ioos:station:WAVCIS:CSI16:1,2009-04-02T18:15:00Z,29.4012,-89.0355,10.0,20.482,11111222 
WAVCIS,ioos:station:WAVCIS:CSI16:1,2009-04-02T18:30:00Z,29.4012,-89.0355,10.0,20.521,11111222 
WAVCIS,ioos:station:WAVCIS:CSI16:1,2009-04-02T18:45:00Z,29.4012,-89.0355,10.0,20.69,11111222 
WAVCIS,ioos:station:WAVCIS:CSI16:1,2009-04-02T19:00:00Z,29.4012,-89.0355,10.0,20.725,11111222 
WAVCIS,ioos:station:WAVCIS:CSI16:1,2009-04-02T19:15:00Z,29.4012,-89.0355,10.0,20.803,11111222 
WAVCIS,ioos:station:WAVCIS:CSI16:1,2009-04-02T19:30:00Z,29.4012,-89.0355,10.0,20.694,11111222 
WAVCIS,ioos:station:WAVCIS:CSI16:1,2009-04-02T19:45:00Z,29.4012,-89.0355,10.0,20.771,11111222 
WAVCIS,ioos:station:WAVCIS:CSI16:1,2009-04-02T20:00:00Z,29.4012,-89.0355,10.0,20.774,11111222 
WAVCIS,ioos:station:WAVCIS:CSI16:1,2009-04-02T20:15:00Z,29.4012,-89.0355,10.0,20.732,11111222 
WAVCIS,ioos:station:WAVCIS:CSI16:1,2009-04-02T20:30:00Z,29.4012,-89.0355,10.0,20.745,11111222 
WAVCIS,ioos:station:WAVCIS:CSI16:1,2009-04-02T20:45:00Z,29.4012,-89.0355,10.0,20.771,11111222 
WAVCIS,ioos:station:WAVCIS:CSI16:1,2009-04-02T21:00:00Z,29.4012,-89.0355,10.0,20.821,11111222 
WAVCIS,ioos:station:WAVCIS:CSI16:1,2009-04-02T21:15:00Z,29.4012,-89.0355,10.0,20.766,11111222 
WAVCIS,ioos:station:WAVCIS:CSI16:1,2009-04-02T21:30:00Z,29.4012,-89.0355,10.0,20.807,11111222 
WAVCIS,ioos:station:WAVCIS:CSI16:1,2009-04-02T21:45:00Z,29.4012,-89.0355,10.0,20.75,11111222 
WAVCIS,ioos:station:WAVCIS:CSI16:1,2009-04-02T22:00:00Z,29.4012,-89.0355,10.0,20.677,11111222 
WAVCIS,ioos:station:WAVCIS:CSI16:1,2009-04-02T22:15:00Z,29.4012,-89.0355,10.0,20.637,11111222 
WAVCIS,ioos:station:WAVCIS:CSI16:1,2009-04-02T22:30:00Z,29.4012,-89.0355,10.0,20.592,11111222 
WAVCIS,ioos:station:WAVCIS:CSI16:1,2009-04-02T22:45:00Z,29.4012,-89.0355,10.0,20.535,11111222 
WAVCIS,ioos:station:WAVCIS:CSI16:1,2009-04-02T23:00:00Z,29.4012,-89.0355,10.0,20.523,11111222 
WAVCIS,ioos:station:WAVCIS:CSI16:1,2009-04-02T23:15:00Z,29.4012,-89.0355,10.0,20.503,11111222 
WAVCIS,ioos:station:WAVCIS:CSI16:1,2009-04-02T23:30:00Z,29.4012,-89.0355,10.0,20.487,11111222 
WAVCIS,ioos:station:WAVCIS:CSI16:1,2009-04-02T23:45:00Z,29.4012,-89.0355,10.0,20.493,11111222 
WAVCIS,ioos:station:WAVCIS:CSI16:1,2009-04-03T00:00:00Z,29.4012,-89.0355,10.0,20.476,11111222 
WAVCIS,ioos:station:WAVCIS:CSI16:1,2009-04-03T00:15:00Z,29.4012,-89.0355,10.0,20.449,11111222 
WAVCIS,ioos:station:WAVCIS:CSI16:1,2009-04-03T00:30:00Z,29.4012,-89.0355,10.0,20.419,11111222 
WAVCIS,ioos:station:WAVCIS:CSI16:1,2009-04-03T00:45:00Z,29.4012,-89.0355,10.0,20.4,11111222 
WAVCIS,ioos:station:WAVCIS:CSI16:1,2009-04-03T01:00:00Z,29.4012,-89.0355,10.0,20.401,11111222 
WAVCIS,ioos:station:WAVCIS:CSI16:1,2009-04-03T01:15:00Z,29.4012,-89.0355,10.0,20.396,11111222 
WAVCIS,ioos:station:WAVCIS:CSI16:1,2009-04-03T01:30:00Z,29.4012,-89.0355,10.0,20.376,11111222 
WAVCIS,ioos:station:WAVCIS:CSI16:1,2009-04-03T01:45:00Z,29.4012,-89.0355,10.0,20.208,11111222 
WAVCIS,ioos:station:WAVCIS:CSI16:1,2009-04-03T02:00:00Z,29.4012,-89.0355,10.0,20.215,11111222 
WAVCIS,ioos:station:WAVCIS:CSI16:1,2009-04-03T02:15:00Z,29.4012,-89.0355,10.0,20.262,11111222 
WAVCIS,ioos:station:WAVCIS:CSI16:1,2009-04-03T02:30:00Z,29.4012,-89.0355,10.0,20.218,11111222 
WAVCIS,ioos:station:WAVCIS:CSI16:1,2009-04-03T02:45:00Z,29.4012,-89.0355,10.0,20.192,11111222 
WAVCIS,ioos:station:WAVCIS:CSI16:1,2009-04-03T03:00:00Z,29.4012,-89.0355,10.0,20.173,11111222 
WAVCIS,ioos:station:WAVCIS:CSI16:1,2009-04-03T03:15:00Z,29.4012,-89.0355,10.0,20.16,11111222 
WAVCIS,ioos:station:WAVCIS:CSI16:1,2009-04-03T03:30:00Z,29.4012,-89.0355,10.0,20.148,11111222 
WAVCIS,ioos:station:WAVCIS:CSI16:1,2009-04-03T03:45:00Z,29.4012,-89.0355,10.0,20.142,11111222 
WAVCIS,ioos:station:WAVCIS:CSI16:1,2009-04-03T04:00:00Z,29.4012,-89.0355,10.0,20.139,11111222 
WAVCIS,ioos:station:WAVCIS:CSI16:1,2009-04-03T04:15:00Z,29.4012,-89.0355,10.0,20.151,11111222 
WAVCIS,ioos:station:WAVCIS:CSI16:1,2009-04-03T04:30:00Z,29.4012,-89.0355,10.0,20.177,11111222 
WAVCIS,ioos:station:WAVCIS:CSI16:1,2009-04-03T04:45:00Z,29.4012,-89.0355,10.0,20.214,11111222 
WAVCIS,ioos:station:WAVCIS:CSI16:1,2009-04-03T05:00:00Z,29.4012,-89.0355,10.0,20.02,11111222 
WAVCIS,ioos:station:WAVCIS:CSI16:1,2009-04-03T05:15:00Z,29.4012,-89.0355,10.0,19.938,11111222 
WAVCIS,ioos:station:WAVCIS:CSI16:1,2009-04-03T05:30:00Z,29.4012,-89.0355,10.0,19.802,11111222 
WAVCIS,ioos:station:WAVCIS:CSI16:1,2009-04-03T05:45:00Z,29.4012,-89.0355,10.0,20.014,11111222 
WAVCIS,ioos:station:WAVCIS:CSI16:1,2009-04-03T06:00:00Z,29.4012,-89.0355,10.0,20.085,11111222 
WAVCIS,ioos:station:WAVCIS:CSI16:1,2009-04-03T06:15:00Z,29.4012,-89.0355,10.0,19.886,11111222 
WAVCIS,ioos:station:WAVCIS:CSI16:1,2009-04-03T06:30:00Z,29.4012,-89.0355,10.0,19.937,11111222 
WAVCIS,ioos:station:WAVCIS:CSI16:1,2009-04-03T06:45:00Z,29.4012,-89.0355,10.0,19.979,11111222 
WAVCIS,ioos:station:WAVCIS:CSI16:1,2009-04-03T07:00:00Z,29.4012,-89.0355,10.0,19.872,11111222 
WAVCIS,ioos:station:WAVCIS:CSI16:1,2009-04-03T07:15:00Z,29.4012,-89.0355,10.0,19.9,11111222 
WAVCIS,ioos:station:WAVCIS:CSI16:1,2009-04-03T07:30:00Z,29.4012,-89.0355,10.0,19.811,11111222 
WAVCIS,ioos:station:WAVCIS:CSI16:1,2009-04-03T07:45:00Z,29.4012,-89.0355,10.0,19.743,11111222 
WAVCIS,ioos:station:WAVCIS:CSI16:1,2009-04-03T08:00:00Z,29.4012,-89.0355,10.0,19.663,11111222 
WAVCIS,ioos:station:WAVCIS:CSI16:1,2009-04-03T08:15:00Z,29.4012,-89.0355,10.0,19.648,11111222 
WAVCIS,ioos:station:WAVCIS:CSI16:1,2009-04-03T08:30:00Z,29.4012,-89.0355,10.0,19.646,11111222 
WAVCIS,ioos:station:WAVCIS:CSI16:1,2009-04-03T08:45:00Z,29.4012,-89.0355,10.0,19.526,11111222 
WAVCIS,ioos:station:WAVCIS:CSI16:1,2009-04-03T09:00:00Z,29.4012,-89.0355,10.0,19.543,11111222 
WAVCIS,ioos:station:WAVCIS:CSI16:1,2009-04-03T09:15:00Z,29.4012,-89.0355,10.0,19.404,11111222 
WAVCIS,ioos:station:WAVCIS:CSI16:1,2009-04-03T09:30:00Z,29.4012,-89.0355,10.0,19.439,11111222 
WAVCIS,ioos:station:WAVCIS:CSI16:1,2009-04-03T09:45:00Z,29.4012,-89.0355,10.0,19.376,11111222 
WAVCIS,ioos:station:WAVCIS:CSI16:1,2009-04-03T10:00:00Z,29.4012,-89.0355,10.0,19.434,11111222 
WAVCIS,ioos:station:WAVCIS:CSI16:1,2009-04-03T10:15:00Z,29.4012,-89.0355,10.0,19.382,11111222 
WAVCIS,ioos:station:WAVCIS:CSI16:1,2009-04-03T10:30:00Z,29.4012,-89.0355,10.0,19.408,11111222 
WAVCIS,ioos:station:WAVCIS:CSI16:1,2009-04-03T10:45:00Z,29.4012,-89.0355,10.0,19.39,11111222 
WAVCIS,ioos:station:WAVCIS:CSI16:1,2009-04-03T11:00:00Z,29.4012,-89.0355,10.0,19.382,11111222 
WAVCIS,ioos:station:WAVCIS:CSI16:1,2009-04-03T11:15:00Z,29.4012,-89.0355,10.0,19.392,11111222 
WAVCIS,ioos:station:WAVCIS:CSI16:1,2009-04-03T11:30:00Z,29.4012,-89.0355,10.0,19.383,11111222 
WAVCIS,ioos:station:WAVCIS:CSI16:1,2009-04-03T11:45:00Z,29.4012,-89.0355,10.0,19.385,11111222 
WAVCIS,ioos:station:WAVCIS:CSI16:1,2009-04-03T12:00:00Z,29.4012,-89.0355,10.0,19.507,11111222 
WAVCIS,ioos:station:WAVCIS:CSI16:1,2009-04-03T12:15:00Z,29.4012,-89.0355,10.0,19.488,11111222 
WAVCIS,ioos:station:WAVCIS:CSI16:1,2009-04-03T12:30:00Z,29.4012,-89.0355,10.0,19.53,11111222 
WAVCIS,ioos:station:WAVCIS:CSI16:1,2009-04-03T12:45:00Z,29.4012,-89.0355,10.0,19.611,11111222 
WAVCIS,ioos:station:WAVCIS:CSI16:1,2009-04-03T13:00:00Z,29.4012,-89.0355,10.0,19.58,11111222 
WAVCIS,ioos:station:WAVCIS:CSI16:1,2009-04-03T13:15:00Z,29.4012,-89.0355,10.0,19.64,11111222 
WAVCIS,ioos:station:WAVCIS:CSI16:1,2009-04-03T13:30:00Z,29.4012,-89.0355,10.0,19.654,11111222 
WAVCIS,ioos:station:WAVCIS:CSI16:1,2009-04-03T13:45:00Z,29.4012,-89.0355,10.0,19.766,11111222 
WAVCIS,ioos:station:WAVCIS:CSI16:1,2009-04-03T14:00:00Z,29.4012,-89.0355,10.0,19.767,11111222 
WAVCIS,ioos:station:WAVCIS:CSI16:1,2009-04-03T14:15:00Z,29.4012,-89.0355,10.0,19.788,11111222 
WAVCIS,ioos:station:WAVCIS:CSI16:1,2009-04-03T14:30:00Z,29.4012,-89.0355,10.0,19.877,11111222 
WAVCIS,ioos:station:WAVCIS:CSI16:1,2009-04-03T14:45:00Z,29.4012,-89.0355,10.0,19.899,11111222 